www.pogodaiklimat.ru

АРХИВ ПОГОДЫ в Омахе

Время (UTC), дата Ветер
(напр.,м/с)
 
Видим.   Явления Облачность Т
(С)
Тd
(С)
f
(%)
Тe
(С)
Тes
(С)
Комфортность

P
(гПа)

Po
(гПа)
Тmin
(С)
Tmax
(С)
R
(мм)
SD
(см)
09:52 22.04 С  16 км    8/0 3300 м
[средняя] 
+6.7  -0.6  60  +4  +4    1023.3  987.1         
10:52 22.04 СЗ  16 км    8/0 2700 м
[средняя верхняя] 
+5.0  0.0  70  +2  +2    1023.7  987.5  +4.4       
11:52 22.04 С  16 км    8/0 3000 м
[средняя верхняя] 
+8.9  +0.6  56  +8  +8    1024.1  987.8         
12:52 22.04 В  16 км    8/0 3000 м
[средняя верхняя] 
+10.6  0.0  48  +9  +9    1024.0  988.1         
13:52 22.04 В  16 км    8/0 3000 м
[средняя верхняя] 
+14.0  0.0  38  +13  +14    1023.5  987.5         
14:52 22.04 В  16 км    8/0 3000 м
[средняя верхняя] 
+16.1  0.0  33  +15  +19    1023.2  987.5         
15:52 22.04 нст  3
{7} 
16 км    8/0 2700 м
[средняя верхняя] 
+17.2  -1.1  29  +17  +22    1023.0  987.5         
16:52 22.04 СВ  16 км    8/0 2700 м
[средняя верхняя] 
+19.0  -1.0  26  +19  +24    1022.6  986.8  +5.0       
17:52 22.04 СВ  16 км    5/0 2850 м
[средняя верхняя] 
+21.1  0.0  24  +21  +25  комфорт  1021.7  986.2         
18:52 22.04 В  6
{11} 
16 км    8/0 2850 м
[средняя] 
+20.6  0.0  25  +20  +23    1021.5  985.8         
19:52 22.04 В  16 км    8/0 2700 м
[средняя верхняя] 
+21.0  -1.0  23  +21  +22  комфорт  1020.9  985.2         
20:52 22.04 В  16 км    8/0 2850 м
[средняя] 
+20.6  0.0  25  +21  +24  комфорт  1020.6  984.9         
21:52 22.04 В  4
{8} 
16 км    8/0 3000 м
[средняя] 
+20.0  0.0  26  +20  +22    1020.4  984.5         
22:52 22.04 В  16 км    8/0 3000 м
[средняя] 
+21.0  -1.0  23  +21  +21  комфорт  1020.3  984.5  +18.9       
23:52 22.04 В  16 км    8/0 3000 м
[средняя] 
+18.3  -0.6  28  +18  +18    1020.5  984.9         
00:52 23.04 С  16 км    8/0 3000 м
[средняя] 
+14.4  -0.6  36  +14  +14    1021.0  985.2         
01:52 23.04 В  16 км    5/0 4500 м
[средняя] 
+15.0  -1.7  32  +14  +14    1021.3  985.8         
02:52 23.04 штиль  16 км    ясно  +11.7  -1.1  41  +12  +12    1021.3  985.5         
03:52 23.04 С  16 км    ясно  +9.4  -1.1  48  +7  +7    1021.4  985.8         
04:52 23.04 СЗ  16 км    ясно  +7.8  -1.1  53  +5  +5    1021.6  985.8    +20.0     
05:52 23.04 З  16 км    ясно  +7.8  -1.7  51  +6  +6    1021.5  985.8         
06:52 23.04 СЗ  16 км    ясно  +7.2  -2.2  51  +5  +5    1021.6  985.8         
07:52 23.04 С  16 км    ясно  +5.6  -0.6  64  +3  +3    1021.7  985.8         
08:52 23.04 С  16 км    ясно  +2.8  -2.2  70  -1  -1    1021.9  985.8         
09:52 23.04 С  16 км    2/0 3600 м
[средняя] 
+2.8  -1.7  72  -2  -2    1022.1  986.2         
10:52 23.04 С  16 км    2/0 3600 м
[средняя верхняя] 
+3.0  -1.0  75  -2  -2    1022.4  986.5  +2.2       
11:52 23.04 С  16 км    2/0 7500 м
[верхняя] 
+5.6  -0.6  64  +2  +2    1022.8  986.8         
12:52 23.04 С  16 км    2/0 7500 м
[верхняя] 
+10.0  0.0  50  +8  +9    1022.9  987.1         
13:52 23.04 С  16 км    2/0 7500 м
[верхняя] 
+15.0  +0.6  37  +15  +20    1022.2  986.5         
14:52 23.04 штиль  16 км    5/0 7500 м
[верхняя] 
+17.8  0.0  30  +18  +28    1022.0  986.2         
15:52 23.04 СВ  16 км    5/0 7500 м
[верхняя] 
+20.6  -1.1  23  +21  +27  комфорт  1021.5  985.8         
16:52 23.04 В  16 км    5/0 7500 м
[верхняя] 
+22.0  -2.0  20  +21  +30  комфорт  1020.8  985.2  +2.8       
17:52 23.04 СВ  16 км    2/0 7500 м
[верхняя] 
+22.8  -1.7  19  +22  +31  комфорт  1019.9  984.2         
18:52 23.04 нст  16 км    2/0 7500 м
[верхняя] 
+22.8  -1.7  19  +22  +39  комфорт  1019.1  983.6         
19:52 23.04 В  16 км    2/0 7500 м
[верхняя] 
+23.9  -1.7  18  +22  +35  комфорт  1018.3  982.9         
20:52 23.04 В  16 км    2/0 7500 м
[верхняя] 
+23.9  -2.2  18  +22  +30  комфорт  1018.0  982.2         
21:52 23.04 СВ  16 км    2/0 2100 м
[средняя] 
+23.9  -2.2  18  +22  +27  комфорт  1017.7  982.2         
22:52 23.04 В  16 км    2/0 2700 м
[средняя] 
+22.8  -2.2  19  +22  +25  комфорт  1017.5  981.9         
23:52 23.04 СВ  16 км    2/0 7500 м
[верхняя] 
+20.6  -1.7  22  +21  +21  комфорт  1017.5  981.9         
00:52 24.04 В  16 км    2/0 7500 м
[верхняя] 
+17.8  -1.1  28  +17  +17    1017.7  982.2         
01:52 24.04 В  16 км    2/0 7500 м
[верхняя] 
+16.1  -0.6  32  +15  +15    1018.1  982.6         
02:52 24.04 штиль  16 км    ясно  +13.3  -0.6  38  +13  +13    1018.5  982.9         
03:52 24.04 штиль  16 км    5/0 7500 м
[верхняя] 
+12.2  -0.6  41  +12  +12    1018.9  983.6         
04:52 24.04 СЗ  16 км    5/0 7500 м
[верхняя] 
+12.2  +1.1  47  +12  +12    1019.4  983.9         
05:52 24.04 СЗ  16 км    5/0 7500 м
[верхняя] 
+8.3  +1.1  60  +6  +6    1020.0  984.5         
06:52 24.04 СЗ  16 км    8/0 3300 м
[средняя] 
+8.3  +2.2  65  +6  +6    1019.9  984.2         
07:52 24.04 С  16 км    5/0 3300 м
[средняя] 
+7.2  +2.8  74  +4  +4    1019.9  984.2         
08:52 24.04 С  16 км    2/0 3300 м
[средняя] 
+6.1  +2.8  79  +3  +3    1019.6  983.9         

 

Местоположение метеостанции Eppley Airfield: широта 41.3103 долгота -95.8992 высота над уровнем моря 299 м.

В архиве по умолчанию представлена погода в Омахе за последние 1-2 суток. Обновление информации о фактической погоде в базе происходит ежечасно! Архивные данные за месяц целиком и за предыдущие месяцы Вы можете получить, выбрав интересующий диапазон дат из раскрывающегося списка и нажав кнопку "Ввод!".

Внимание! Архив погоды МЕТАР в базе сайта в настоящее время начинается c 1 января 2013 г. Нет смысла пытаться выбрать более раннюю дату.

Внимание! Время в таблицах - всемирное. Для получения местного времени необходимо прибавить поправку, которая в Омахе равна -6 ч.

Ветер - указаны скорость ветра в м/с и направление, откуда дует ветер: С - северный, СВ - северо-восточный, В - восточный, ЮВ - юго-восточный, Ю - южный, ЮЗ - юго-западный, З - западный, СЗ - северо-западный.
Видимость - горизонтальная дальность видимости в метрах или километрах. При видимости от 1 до 10 км при отсутствии осадков обычно наблюдается дымка, при ухудшении видимости до 1 км и менее - туман. В сухую погоду видимость может ухудшаться дымом, пылью или мглою.
Атмосферные явления - указаны явления, наблюдавшиеся в указанный момент времени.
Облачность - указаны через наклонную черту верхняя и нижняя облачность в баллах и высота нижней границы облаков в метрах. Внимание: облачность, как и прочие метеорологические величины в США измеряются автоматическими метеостанциями. Указанные значения в баллах носят условный характер и показывают процент времени, в течение которого, в среднем, лазерный луч высотомера отражался от облаков обратно.
T - Температура воздуха - температура, измеренная на высоте 2 м над землей.
Td - Температура точки росы - температура, при понижении до которой содержащийся в воздухе водяной пар достигнет насыщения.
f - Относительная влажность воздуха - влажноcть воздуха, измеренная на высоте 2 м над землей.
Te - Эффективная температура - температура, которую ощущает одетый по сезону человек в тени. Характеристика душности погоды. При расчете учитывается влияние влажности воздуха и скорости ветра на теплоощущения человека.
Tes - Эффективная температура на солнце - температура, которую ощущает человек, с поправкой на солнечный нагрев. Характеристика знойности погоды. Зависит от высоты солнца над горизонтом, облачности и скорости ветра. Ночью, в пасмурную погоду, а также при ветре 12 м/с и более поправка равна нулю.
P - Атмосферное давление - приведенное к уровню моря атмосферное давление.
Po - Атмосферное давление - измеренное на уровне метеостанции атмосферное давление.
Tmin - Минимальная температура - минимум температуры воздуха на высоте 2 м над землей.
Tmax - Максимальная температура - максимум температуры воздуха на высоте 2 м над землей.
R - Количество осадков - Количество выпавших осадков за 3 или 6 часов, мм.
SD - Снежный покров - Высота снежного покрова, см.